[[{"header":{"parameterUnit":"m.s-1","parameterCategory":1,"la1":30.2991,"la2":30.254,"lo1":-89.0895,"lo2":-89.0444,"dy":0.0017,"dx":0.0017,"nx":28,"ny":28,"refTime":"2023-11-04T03:00:00:Z","depth":0,"parameterNumber":2,"parameterNumberName":"U-component_of_WINDS"},"data":[0,0,0,0,0,0,0,0,0,0,0,0,0,0,0,0,0,0,0,0,0,0,0,0,0,0,0,0,0,0,0,0,0,0,0,0,0,0,0,0,0,0,0,0,0,0,0,0,0,0,0,0,0,0,0,0,0,0,-2.7509,-2.751,0,-2.7601,-2.7602,-2.7603,-2.7512,-2.7508,-2.7504,-2.7501,-2.7593,-2.7598,-2.7604,0,0,0,0,0,0,0,0,0,0,0,0,0,-2.7255,-2.726,-2.7509,-2.7511,-2.7512,-2.76,-2.7602,-2.7603,-2.7512,-2.7508,-2.7503,-2.7499,-2.7591,-2.7598,-2.7605,0,0,0,0,0,0,0,0,0,0,0,0,0,-2.7357,-2.7261,-2.7509,-2.7477,-2.7475,-2.76,-2.7602,-2.7603,-2.7513,-2.7508,-2.7502,-2.7497,-2.7589,-2.7597,-2.7606,-2.7766,0,0,-2.7632,-2.7636,0,0,0,0,0,0,0,0,-2.7352,-2.7367,-2.7481,-2.748,-2.7478,-2.7539,-2.7545,-2.7658,-2.7514,-2.7499,-2.7501,-2.7495,-2.7579,-2.7588,-2.7617,-2.7771,-2.7774,-2.7633,-2.7638,-2.7642,-2.7644,0,0,0,0,0,0,0,-2.7345,-2.7362,-2.7545,-2.7482,-2.7481,-2.7457,-2.7466,-2.7566,-2.7568,-2.75,-2.7493,-2.7505,-2.7577,-2.7609,-2.7619,-2.7776,-2.7633,-2.764,-2.7646,-2.7649,-2.8065,-2.8071,0,0,0,0,0,0,-2.7341,-2.7357,-2.7542,-2.7548,-2.74,-2.7466,-2.7476,-2.7525,-2.7566,-2.7568,-2.751,-2.7501,-2.7597,-2.7609,-2.7621,-2.7813,-2.7642,-2.765,-2.7655,-2.8059,-2.8067,-2.8073,0,0,0,0,0,0,-2.7336,-2.7359,-2.7539,-2.7451,-2.7472,-2.7476,-2.7532,-2.7529,-2.7561,-2.7574,-2.7574,-2.7542,-2.7593,-2.7609,-2.7731,-2.7815,-2.7654,-2.7662,-2.8053,-2.8062,-2.807,-2.8196,0,0,0,0,0,0,-2.7329,-2.7358,-2.7419,-2.7453,-2.7477,-2.7648,-2.7537,-2.7535,-2.7576,-2.7565,-2.7604,-2.7606,-2.759,-2.7719,-2.774,-2.7824,-2.7668,-2.8045,-2.8057,-2.8067,-2.8185,-2.8208,-2.8229,0,0,0,0,0,-2.7321,-2.7451,-2.7423,-2.7446,-2.7555,-2.7653,-2.7667,-2.7647,-2.7584,-2.7645,-2.7654,-2.7604,-2.7802,-2.7732,-2.7755,-2.7843,-2.804,-2.8053,-2.8066,-2.8175,-2.8204,-2.8228,0,0,0,0,0,0,-2.7426,-2.7455,-2.7424,-2.7569,-2.761,-2.7637,-2.7715,-2.7678,-2.7736,-2.7723,-2.7695,-2.7705,-2.7834,-2.785,-2.7772,-2.8,-2.791,-2.7929,-2.7985,-2.8013,-2.8034,-2.8028,-2.7676,0,0,0,0,0,-2.7467,-2.7545,-2.7565,-2.7691,-2.7713,-2.7711,-2.7753,-2.7734,-2.7774,-2.779,-2.7807,-2.7848,-2.7919,-2.7966,-2.8032,-2.8186,-2.8193,-2.8257,-2.8279,-2.8297,-2.8314,-2.8397,-2.8426,-2.8116,-2.8116,-2.8116,0,0,-2.7551,-2.7576,-2.7627,-2.7713,-2.7742,-2.7823,-2.7726,-2.7815,-2.7875,-2.7804,-2.792,-2.7934,-2.7977,-2.8116,-2.8178,-2.8133,-2.8401,-2.8314,-2.8328,-2.8335,-2.8413,-2.8443,-2.8469,-2.8125,-2.8124,-2.8122,0,0,-2.7746,-2.7772,-2.7881,-2.7912,-2.7957,-2.7954,-2.798,-2.8014,-2.8021,-2.8137,-2.8085,-2.8155,-2.8278,-2.8311,-2.8344,-2.8551,-2.8508,-2.8573,-2.8688,-2.8769,-2.8793,-2.8814,-2.8889,-2.8916,-2.8589,-2.8589,-2.8589,0,-2.7844,-2.7965,-2.7941,-2.8035,-2.8074,-2.8013,-2.8123,-2.8153,-2.8218,-2.8246,-2.8195,-2.8348,-2.8373,-2.8518,-2.8569,-2.8597,-2.8626,-2.8569,-2.8791,-2.8813,-2.8832,-2.8903,-2.8931,-2.8597,-2.8596,-2.8595,-2.8594,0,-2.8085,-2.8169,-2.8251,-2.8316,-2.8364,-2.8465,-2.8455,-2.8507,-2.8483,-2.8486,-2.8605,-2.8632,-2.8703,-2.8736,-2.8713,-2.8878,-2.8849,-2.8796,-2.8705,-2.887,-2.8936,-2.8963,-2.8608,-2.8605,-2.8603,-2.8601,0,0,-2.835,-2.8399,-2.843,-2.8459,-2.8503,-2.8568,-2.8666,-2.8735,-2.878,-2.8826,-2.8908,-2.9013,-2.8963,-2.9001,-2.8981,-2.9052,-2.9215,-2.8989,-2.899,-2.9031,-2.9399,-2.944,-2.9472,-2.9186,-2.9191,-2.9195,-2.9395,0,-2.8547,-2.8718,-2.8699,-2.8862,-2.894,-2.8882,-2.8967,-2.9004,-2.9009,-2.9075,-2.9079,-2.9155,-2.9083,-2.9105,-2.9173,-2.9181,-2.9288,-2.9166,-2.9262,-2.9265,-2.9254,-2.9506,-2.955,-2.9738,-2.9421,-2.9425,-2.9428,0,-2.88,-2.8856,-2.9027,-2.906,-2.9092,-2.9169,-2.9231,-2.9295,-2.9335,-2.9333,-2.9375,-2.9343,-2.944,-2.9347,-2.9481,-2.9398,-2.9436,-2.9446,-2.9452,-2.9462,-2.9358,-2.9523,-2.9797,-2.9826,-2.9468,-2.9465,-2.9462,0,-2.8978,-2.9095,-2.9213,-2.9239,-2.928,-2.9336,-2.9355,-2.939,-2.9433,-2.9486,-2.9514,-2.9578,-2.9614,-2.9664,-2.965,-2.9583,-2.9787,-2.9693,-2.9789,-2.979,-2.9836,-2.9833,-3.0121,-2.9858,-2.9858,-2.9857,-2.9857,0,-2.9201,-2.9308,-2.9294,-2.9366,-2.9484,-2.946,-2.9577,-2.9589,-2.9621,-2.9694,-2.9647,-2.9717,-2.9694,-2.9762,-2.9752,-2.9865,-2.9881,-2.9882,-2.9878,-2.9887,-2.9887,-2.9912,-2.9899,-2.9865,-2.9863,-2.9862,-2.986,0,-2.942,-2.9414,-2.9539,-2.9568,-2.9577,-2.9663,-2.9687,-2.9755,-2.9756,-2.9849,-2.987,-2.9871,-2.9949,-2.9939,-3.0026,-3.0019,-3.016,-3.0139,-3.0147,-3.0143,-3.024,-3.0231,-3.0555,-3.0596,-3.0306,-3.0309,-3.0311,0,-2.9563,-2.9644,-2.9681,-2.9728,-2.9751,-2.9826,-2.987,-2.9849,-2.9896,-2.9947,-3.0009,-3.0083,-3.0141,-3.0268,-3.0276,-3.0342,-3.0324,-3.0433,-3.0334,-3.034,-3.0327,-3.0323,-3.0331,-3.0453,-3.0456,-3.0459,-3.0461,0,-2.9818,-2.9811,-2.9876,-2.9941,-2.9995,-3.0044,-3.0089,-3.0129,-3.0112,-3.0167,-3.0247,-3.0292,-3.0381,-3.0455,-3.0517,-3.0536,-3.0497,-3.0492,-3.0518,-3.0528,-3.053,-3.0531,-3.0201,-3.0485,-3.0482,-3.0481,-3.0479,-3.0478,-3.0004,-3.0073,-3.0111,-3.0185,-3.0216,-3.0259,-3.0325,-3.0333,-3.04,-3.0471,-3.0454,-3.0544,-3.058,-3.066,-3.0686,-3.0755,-3.0715,-3.0753,-3.0762,-3.0772,-3.0784,-3.0518,-3.0766,-3.0766,-3.0765,-3.0764,-3.0764,0,-3.0257,-3.0278,-3.0346,-3.0411,-3.0469,-3.0426,-3.0473,-3.0525,-3.0605,-3.0643,-3.0701,-3.0792,-3.0863,-3.0877,-3.0945,-3.0998,-3.0982,-3.1017,-3.1013,-3.1018,-3.0816,-3.0787,-3.1029,-3.1029,-3.1029,-3.1029,-3.1029,-3.1029,-3.0396,-3.0512,-3.0509,-3.064,-3.0659,-3.0748,-3.0779,-3.0818,-3.0848,-3.0952,-3.1011,-3.102,-3.1048,-3.1117,-3.1181,-3.1183,-3.121,-3.1253,-3.1248,-3.1059,-3.1033,-3.1007,-3.098,-3.1259,-3.1259,-3.1445,-3.1447,-3.1448]},{"header":{"parameterUnit":"m.s-1","parameterCategory":1,"la1":30.2991,"la2":30.254,"lo1":-89.0895,"lo2":-89.0444,"dy":0.0017,"dx":0.0017,"nx":28,"ny":28,"refTime":"2023-11-04T03:00:00:Z","depth":0,"parameterNumber":3,"parameterNumberName":"V-component_of_WINDS"},"data":[0,0,0,0,0,0,0,0,0,0,0,0,0,0,0,0,0,0,0,0,0,0,0,0,0,0,0,0,0,0,0,0,0,0,0,0,0,0,0,0,0,0,0,0,0,0,0,0,0,0,0,0,0,0,0,0,0,0,-2.3899,-2.3899,0,-2.389,-2.389,-2.3889,-2.3876,-2.3876,-2.3876,-2.3876,-2.3864,-2.3864,-2.3863,0,0,0,0,0,0,0,0,0,0,0,0,0,-2.3901,-2.3901,-2.3899,-2.3899,-2.3899,-2.389,-2.389,-2.3889,-2.3876,-2.3876,-2.3876,-2.3876,-2.3864,-2.3864,-2.3863,0,0,0,0,0,0,0,0,0,0,0,0,0,-2.3897,-2.3901,-2.3899,-2.3891,-2.389,-2.389,-2.389,-2.3889,-2.3876,-2.3876,-2.3876,-2.3875,-2.3864,-2.3864,-2.3863,-2.3869,0,0,-2.3863,-2.3863,0,0,0,0,0,0,0,0,-2.3897,-2.3897,-2.3892,-2.3892,-2.3891,-2.3884,-2.3886,-2.3882,-2.3877,-2.3882,-2.3876,-2.3875,-2.3871,-2.387,-2.3869,-2.3868,-2.3868,-2.3863,-2.3863,-2.3863,-2.3863,0,0,0,0,0,0,0,-2.3897,-2.3897,-2.3895,-2.3892,-2.3891,-2.3887,-2.3886,-2.3885,-2.3878,-2.3881,-2.388,-2.3879,-2.387,-2.3869,-2.3868,-2.3868,-2.3863,-2.3863,-2.3863,-2.3863,-2.3867,-2.3868,0,0,0,0,0,0,-2.3899,-2.3897,-2.3896,-2.3895,-2.3893,-2.3887,-2.3886,-2.3886,-2.3878,-2.3876,-2.388,-2.3879,-2.3869,-2.3868,-2.3868,-2.3872,-2.3863,-2.3863,-2.3862,-2.3867,-2.3867,-2.3868,0,0,0,0,0,0,-2.3899,-2.3899,-2.3896,-2.3896,-2.3895,-2.3887,-2.3888,-2.3886,-2.3885,-2.3877,-2.3875,-2.388,-2.3869,-2.3868,-2.3868,-2.3871,-2.3862,-2.3862,-2.3867,-2.3867,-2.3868,-2.388,0,0,0,0,0,0,-2.3899,-2.3899,-2.3903,-2.3896,-2.3895,-2.3898,-2.3888,-2.3886,-2.3885,-2.3884,-2.3877,-2.3875,-2.3869,-2.3868,-2.3868,-2.3871,-2.3862,-2.3867,-2.3867,-2.3867,-2.388,-2.3881,-2.3882,0,0,0,0,0,-2.39,-2.3907,-2.3903,-2.3903,-2.3899,-2.3898,-2.3897,-2.389,-2.3886,-2.3888,-2.3882,-2.3876,-2.3871,-2.3869,-2.3868,-2.3871,-2.3866,-2.3867,-2.3867,-2.3879,-2.3881,-2.3882,0,0,0,0,0,0,-2.3914,-2.3906,-2.3902,-2.3907,-2.3903,-2.3896,-2.3899,-2.3893,-2.389,-2.3889,-2.3879,-2.3878,-2.3878,-2.3874,-2.3872,-2.3873,-2.3867,-2.3868,-2.3876,-2.3878,-2.3879,-2.388,-2.3862,0,0,0,0,0,-2.3918,-2.3919,-2.3911,-2.3917,-2.3915,-2.3907,-2.3906,-2.3901,-2.3897,-2.3895,-2.3889,-2.3884,-2.3881,-2.3879,-2.3876,-2.3879,-2.3876,-2.388,-2.3881,-2.3882,-2.3883,-2.3881,-2.3882,-2.3869,-2.3869,-2.3869,0,0,-2.3926,-2.3921,-2.3923,-2.3919,-2.3916,-2.3915,-2.3906,-2.3907,-2.3905,-2.3895,-2.3894,-2.3889,-2.3883,-2.3883,-2.3883,-2.388,-2.3885,-2.3883,-2.3884,-2.3884,-2.3882,-2.3883,-2.3884,-2.387,-2.387,-2.387,0,0,-2.394,-2.3938,-2.3941,-2.3937,-2.3932,-2.3926,-2.3926,-2.3919,-2.3916,-2.3915,-2.3906,-2.3903,-2.3899,-2.3894,-2.3891,-2.3899,-2.3893,-2.3899,-2.3906,-2.3904,-2.3905,-2.3906,-2.3907,-2.3908,-2.3899,-2.3899,-2.3899,0,-2.395,-2.3951,-2.3943,-2.3943,-2.3941,-2.3931,-2.3932,-2.3929,-2.3923,-2.392,-2.3917,-2.3909,-2.3904,-2.3902,-2.3904,-2.3902,-2.3901,-2.39,-2.3906,-2.3907,-2.3907,-2.3908,-2.3909,-2.39,-2.39,-2.39,-2.39,0,-2.3962,-2.3962,-2.3965,-2.3959,-2.3957,-2.3958,-2.3949,-2.3947,-2.3941,-2.3935,-2.3933,-2.3926,-2.392,-2.3919,-2.3914,-2.3915,-2.3913,-2.3908,-2.3902,-2.3909,-2.391,-2.3911,-2.3901,-2.39,-2.39,-2.39,0,0,-2.3987,-2.3975,-2.3976,-2.3972,-2.3964,-2.3963,-2.3962,-2.3957,-2.3954,-2.395,-2.3947,-2.3942,-2.3937,-2.3933,-2.3926,-2.3925,-2.3929,-2.3919,-2.3919,-2.392,-2.3929,-2.3932,-2.3933,-2.3925,-2.3925,-2.3925,-2.3929,0,-2.3999,-2.3998,-2.399,-2.3991,-2.3989,-2.3978,-2.3977,-2.397,-2.3964,-2.396,-2.3952,-2.3949,-2.3942,-2.3939,-2.3938,-2.3929,-2.3931,-2.3929,-2.3921,-2.3921,-2.3923,-2.3934,-2.3939,-2.3943,-2.3929,-2.3929,-2.3929,0,-2.4013,-2.4009,-2.4009,-2.3999,-2.3998,-2.3997,-2.399,-2.3987,-2.3978,-2.3974,-2.3968,-2.396,-2.3956,-2.395,-2.3944,-2.3942,-2.3938,-2.3933,-2.3933,-2.3932,-2.3926,-2.3932,-2.3944,-2.3944,-2.393,-2.393,-2.393,0,-2.4029,-2.4023,-2.4022,-2.4019,-2.4007,-2.4006,-2.4001,-2.3992,-2.3989,-2.3982,-2.3979,-2.3972,-2.3967,-2.3961,-2.395,-2.3947,-2.3944,-2.3937,-2.3938,-2.3939,-2.3939,-2.3939,-2.3949,-2.3937,-2.3937,-2.3937,-2.3937,0,-2.4043,-2.4043,-2.4029,-2.4028,-2.4027,-2.4017,-2.4016,-2.4009,-2.4001,-2.3997,-2.3987,-2.3983,-2.397,-2.3964,-2.3955,-2.395,-2.3948,-2.3943,-2.3941,-2.3944,-2.3944,-2.3941,-2.394,-2.3937,-2.3937,-2.3937,-2.3937,0,-2.4061,-2.4051,-2.4049,-2.4037,-2.4034,-2.4034,-2.4023,-2.4021,-2.4013,-2.4008,-2.4006,-2.3993,-2.3986,-2.3974,-2.3964,-2.3957,-2.3953,-2.395,-2.3956,-2.3955,-2.3956,-2.3956,-2.3965,-2.3964,-2.3953,-2.3953,-2.3953,0,-2.407,-2.407,-2.4058,-2.4055,-2.405,-2.4045,-2.4041,-2.4029,-2.4025,-2.4014,-2.4012,-2.4004,-2.3997,-2.3985,-2.3974,-2.3964,-2.396,-2.3964,-2.3959,-2.3961,-2.3959,-2.3959,-2.3958,-2.3965,-2.3965,-2.3965,-2.3966,0,-2.4086,-2.4081,-2.4076,-2.4069,-2.4064,-2.4057,-2.405,-2.4048,-2.4034,-2.403,-2.4022,-2.4016,-2.4004,-2.3995,-2.3984,-2.3977,-2.3968,-2.3967,-2.3966,-2.397,-2.3973,-2.397,-2.3959,-2.3967,-2.3967,-2.3967,-2.3967,-2.3967,-2.4099,-2.4098,-2.4088,-2.4082,-2.4075,-2.4068,-2.4065,-2.4056,-2.405,-2.404,-2.4033,-2.4025,-2.4013,-2.3997,-2.399,-2.3983,-2.3979,-2.3979,-2.3979,-2.3979,-2.3979,-2.3974,-2.3981,-2.3981,-2.3981,-2.398,-2.398,0,-2.4114,-2.4107,-2.4102,-2.4091,-2.4086,-2.4079,-2.4069,-2.4065,-2.4058,-2.4049,-2.4042,-2.4031,-2.4022,-2.4009,-2.3998,-2.3994,-2.399,-2.3992,-2.3992,-2.399,-2.3984,-2.3985,-2.3996,-2.3996,-2.3996,-2.3996,-2.3996,-2.3996,-2.4121,-2.4118,-2.4111,-2.4103,-2.4095,-2.4088,-2.4083,-2.4076,-2.4068,-2.4057,-2.4049,-2.4041,-2.4029,-2.4017,-2.4008,-2.4004,-2.4,-2.4003,-2.3998,-2.3992,-2.3991,-2.3989,-2.399,-2.4002,-2.4002,-2.4005,-2.4005,-2.4005]}]]